Regional Weather Roundup
Issued by NWS Grand Forks, ND

Home | Current Version | Previous Version | Text Only | Print | Product List | Glossary On
Versions: 1 2 3 4 5 6 7 8 9 10 11 12 13 14 15 16 17 18 19 20 21 22 23 24 25 26 27 28 29 30 31 32 33 34 35 36 37 38 39 40 41 42 43 44 45 46 47 48 49 50
000
ASUS43 KFGF 291831
RWRFGF
PRAIRIE TO PINES  WEATHER ROUNDUP
NATIONAL WEATHER SERVICE EASTERN NORTH DAKOTA/GRAND FORKS ND
100 PM CDT WED JUL 29 2015

 **SATELLITE DATA USED TO AUGMENT SKY COVER AT AUTOMATED STATIONS**
 *****  WEATHER ACROSS EASTERN NORTH DAKOTA  *****

CITY           SKY/WX    TMP DP  RH WIND       PRES   REMARKS
GRAND FORKS    PTSUNNY   78  54  43 W28G39    29.79R
6HR MIN TEMP:  65; 6HR MAX TEMP:  78;

GRAND FRKS AFB FAIR      77  55  47 NW21G33   29.80R
GRAND FRKS NWS   N/A     75 N/A N/A NW13        N/A
DEVILS LAKE    FAIR      77  52  41 W32G38    29.85S
6HR MIN TEMP:  64; 6HR MAX TEMP:  75;

FARGO          PTSUNNY   78  55  44 W24G35    29.87R
WAHPETON ARPT  FAIR      79  45  29 W29G39    29.92S
$$

 ***** WEATHER ACROSS CENTRAL AND WESTERN NORTH DAKOTA  *****

CITY           SKY/WX    TMP DP  RH WIND       PRES   REMARKS
BISMARCK       MOSUNNY   79  48  33 NW23G35   30.04R
6HR MIN TEMP:  61; 6HR MAX TEMP:  79;

MINOT          FAIR      78  52  40 W23G35    29.95S
6HR MIN TEMP:  61; 6HR MAX TEMP:  78;

JAMESTOWN      FAIR      78  51  38 NW25G35   29.95R
6HR MIN TEMP:  63; 6HR MAX TEMP:  78;

MINOT AFB      FAIR      77  58  50 W25       29.93F
GARRISON         N/A     74  53  48 W23G37    30.01R
WILLISTON      SUNNY     78  48  34 W22G29    30.05S
6HR MIN TEMP:  59; 6HR MAX TEMP:  78;

DICKINSON      PTSUNNY   75  46  35 W16G28    30.11S
6HR MIN TEMP:  56; 6HR MAX TEMP:  75;

HETTINGER      PTSUNNY   76  44  32 W16       30.17R
6HR MIN TEMP:  52; 6HR MAX TEMP:  76;

$$

 *****  OTHER AIRPORT OBSERVATIONS IN OUR AREA  *****

CITY           SKY/WX    TMP DP  RH WIND       PRES   REMARKS
WALHALLA       FAIR      75  50  41 MISG      29.74R
GRAFTON AIRPOR FAIR      77  55  47 NW25G38   29.77R
VALLEY CITY AR FAIR      77  54  44 W25G41    29.93R
CANDO          FAIR      73  57  56 W22G31    29.86R
CAVALIER APRT  FAIR      75  50  41 NW22G37   29.74R
GWINNER        FAIR      79  54  41 W24G33    29.97R
ROLLA            N/A     72  55  56 NW20G38   29.86R
 ***** THE ABOVE OBSERVATIONS ARE NON NWS ARE NOT QUALITY
       CONTROLLED AND MAY MIS-REPORT RAIN FOR SNOW...
$$

  *****  WEATHER ACROSS NORTHERN MINNESOTA  *****

CITY           SKY/WX    TMP DP  RH WIND       PRES   REMARKS
FLAG ISLAND    CLOUDY    64  57  77 W23G32    29.60R
WARROAD        CLOUDY    68  61  77 W16G28    29.66R
ROSEAU         CLOUDY    68  59  73 W16G25    29.68R
HALLOCK        FAIR      77  52  41 NW25G41   29.71R
THF RVR FALLS  PTSUNNY  N/A N/A N/A W24G36    29.76R
BAUDETTE       CLOUDY    67  58  72 W21G32    29.65R
6HR MIN TEMP:  60; 6HR MAX TEMP:  66; 6HR PCP: TRACE;

WASKISH        CLOUDY    68  59  73 W24G36    29.71R
CROOKSTON      FAIR      75  55  50 W26G39    29.80R
STEPHEN NDAWN    N/A     75  55  50 NW25        N/A
GREENBUSH NDAW   N/A     75  55  50 W20         N/A
$$
  *****  WEATHER ACROSS CENTRAL AND WEST MINNESOTA  *****

CITY           SKY/WX    TMP DP  RH WIND       PRES   REMARKS
FOSSTON        FAIR      73  54  49 W25G39    29.81R
BEMIDJI        CLOUDY    74  55  52 W25G35    29.77S
PARK RAPIDS    FAIR      76  53  44 W29G39    29.83R
6HR MIN TEMP:  64; 6HR MAX TEMP:  77;

ELBOW LAKE     FAIR      76  55  48 W24G30    29.93S
WADENA         FAIR      75  54  46 W22G39    29.87S
DETROIT LAKES  FAIR      73  54  49 W24G33    29.89R
MOORHEAD       FAIR      77  55  47 W23G33    29.88S
FERGUS FALLS   FAIR      77  54  44 W26G36    29.90S
MORRIS MN      FAIR      79  55  44 W28G36    29.94F
STAPLES        FAIR      75  52  43 W24G33    29.86S
$$
  *****  WEATHER ELSEWHERE ACROSS MINNESOTA  *****

CITY           SKY/WX    TMP DP  RH WIND       PRES   REMARKS
DULUTH         CLOUDY    71  54  54 W25G38    29.77R
6HR MIN TEMP:  65; 6HR MAX TEMP:  71;

INTRNTL FALLS  LGT RAIN  63  58  83 W15G26    29.63R
6HR MIN TEMP:  61; 6HR MAX TEMP:  63; 6HR PCP: TRACE;

ELY            CLOUDY    64  55  72 W25G37    29.69R
CLOQUET        CLOUDY    72  52  49 W15G33    29.79S
WHEATON        FAIR      75  55  50 W23G31    29.96S
BRAINERD       FAIR      76  51  41 W24G37    29.84S
6HR MIN TEMP:  64; 6HR MAX TEMP:  76;

HIBBING        LGT RAIN  66  55  67 W12G22    29.75R
6HR MIN TEMP:  64; 6HR MAX TEMP:  66; 6HR PCP: TRACE;

ALEXANDRIA     FAIR      77  55  46 W26G33    29.94S
6HR MIN TEMP:  64; 6HR MAX TEMP:  77;

SAINT CLOUD    FAIR      79  52  38 W24G36    29.91S
6HR MIN TEMP:  65; 6HR MAX TEMP:  79;

MINNEAPOLIS    FAIR      80  53  39 W22G29    29.94S
6HR MIN TEMP:  67; 6HR MAX TEMP:  80;

$$

  *****  WEATHER ACROSS SOUTH DAKOTA  *****

CITY           SKY/WX    TMP DP  RH WIND       PRES   REMARKS
SIOUX FALLS    FAIR      79  55  43 W16G25    30.13S
6HR MIN TEMP:  61; 6HR MAX TEMP:  79;

BROOKINGS      FAIR      77  54  44 W22G30    30.10F
WATERTOWN      FAIR      77  52  41 W23G33    30.05S
6HR MIN TEMP:  60; 6HR MAX TEMP:  77;

HURON          SUNNY     82  51  34 NW22      30.08F
6HR MIN TEMP:  59; 6HR MAX TEMP:  82;

SISSETON         N/A     78  53  41 NW28G40   29.95F
ABERDEEN       SUNNY     82  47  29 W24G36    30.04S
6HR MIN TEMP:  58; 6HR MAX TEMP:  82;

MITCHELL       SUNNY     83  50  31 W16G25    30.12F
PIERRE         SUNNY     86  38  18 W20G32    30.12F
6HR MIN TEMP:  61; 6HR MAX TEMP:  86;

MOBRIDGE       SUNNY     82  50  32 NW20G28   30.07F
RAPID CITY     SUNNY     78  43  28 N9        30.24F
6HR MIN TEMP:  50; 6HR MAX TEMP:  79;

$$

  *****  SOME WEATHER IN NEARBY STATES *****

CITY           SKY/WX    TMP DP  RH WIND       PRES   REMARKS
GLASGOW MT     SUNNY     76  46  34 NW13G20   30.12S
6HR MIN TEMP:  52; 6HR MAX TEMP:  77;

GREAT FALLS MT SUNNY     75  37  25 W13G22    30.21F
6HR MIN TEMP:  51; 6HR MAX TEMP:  75;

CHEYENNE WY    SUNNY     73  47  39 S13G23    30.37S
6HR MIN TEMP:  47; 6HR MAX TEMP:  73;

SCOTTSBLUFF NE SUNNY     76  48  37 E10       30.29F
6HR MIN TEMP:  49; 6HR MAX TEMP:  76;

OMAHA NE       FAIR      83  52  34 NW12      30.16F
6HR MIN TEMP:  63; 6HR MAX TEMP:  85;

DES MOINES IA  PTSUNNY   83  51  33 NW17      30.12R
6HR MIN TEMP:  72; 6HR MAX TEMP:  84;

DAVENPORT IA   FAIR      81  57  43 NW14      30.07S
6HR MIN TEMP:  72; 6HR MAX TEMP:  81;

CHICAGO IL     PTSUNNY   85  58  39 NW16G24   29.99R
6HR MIN TEMP:  76; 6HR MAX TEMP:  86;

EAU CLAIRE WI  FAIR      81  51  35 W21G39    29.90S
6HR MIN TEMP:  66; 6HR MAX TEMP:  81;

LA CROSSE WI   FAIR      83  51  33 W22G32    29.96S
6HR MIN TEMP:  71; 6HR MAX TEMP:  83;

$$

  *****  SOME NATIONAL WEATHER *****

CITY           SKY/WX    TMP DP  RH WIND       PRES   REMARKS
LA GUARDIA NY  PTSUNNY   92  62  36 E8        29.95F HX  92
6HR MIN TEMP:  81; 6HR MAX TEMP:  94;

RALEIGH NC     PTSUNNY   87  70  56 VRB6      30.02F HX  92
6HR MIN TEMP:  76; 6HR MAX TEMP:  87;

ATLANTA GA     FAIR      92  74  55 W7        30.00F HX 101
6HR MIN TEMP:  77; 6HR MAX TEMP:  92;

NEW ORLEANS LA PTSUNNY   94  73  50 N13G18    30.02F HX 103
6HR MIN TEMP:  80; 6HR MAX TEMP:  94;

OKLAHOMA CITY  FAIR      92  71  50 SE9       30.07S HX  98
6HR MIN TEMP:  71; 6HR MAX TEMP:  92;

ALBUQUERQUE NM PTSUNNY   78  55  44 N9        30.32R
6HR MIN TEMP:  71; 6HR MAX TEMP:  79; 6HR PCP: TRACE;

SALT LAKE CITY SUNNY     76  32  20 NW6       30.30S
6HR MIN TEMP:  53; 6HR MAX TEMP:  76;

LOS ANGELES CA PTSUNNY   71  63  75 W7        29.96R
6HR MIN TEMP:  65; 6HR MAX TEMP:  71;

BOISE ID       SUNNY     80  31  16 SE8       30.25F



USA.gov is the U.S. government's official web portal to all federal, state and local government web resources and services.